This is the latest recevied weather packets stored in our database for station/object AD0YN. If no packets are shown the sender has not sent any weather packets the latest 10 day(s).
| Time | Temp. | Humidity | Pressure | Rain* | Wind** | Luminosity | Snow |
|---|---|---|---|---|---|---|---|
| 1777982417 | 11.11° C | 57% | 1009.4 hPa | 0 mm | - | 27 W/m² | - |
| 1777982112 | 11.11° C | 54% | 1009.5 hPa | 0 mm | - | 27 W/m² | - |
| 1777981811 | 11.11° C | 56% | 1009.5 hPa | 0 mm | - | 25 W/m² | - |
| 1777981507 | 11.11° C | 54% | 1009.5 hPa | 0 mm | - | 24 W/m² | - |
| 1777981204 | 11.11° C | 53% | 1009.4 hPa | 0 mm | - | 17 W/m² | - |
| 1777980900 | 11.11° C | 54% | 1009.5 hPa | 0 mm | - | 12 W/m² | - |
| 1777980590 | 11.11° C | 57% | 1009.5 hPa | 0 mm | - | 8 W/m² | - |
| 1777980287 | 11.11° C | 57% | 1009.7 hPa | 0 mm | - | 3 W/m² | - |
| 1777979984 | 11.11° C | 58% | 1009.9 hPa | 0 mm | - | 2 W/m² | - |
| 1777979678 | 11.11° C | 59% | 1009.6 hPa | 0 mm | - | 1 W/m² | - |
| 1777979375 | 11.11° C | 59% | 1009.7 hPa | 0 mm | - | 1 W/m² | - |
| 1777979071 | 11.11° C | 60% | 1009.8 hPa | 0 mm | - | 0 W/m² | - |
| 1777978768 | 11.11° C | 58% | 1009.5 hPa | 0 mm | - | 0 W/m² | - |
| 1777978465 | 11.11° C | 59% | 1009.7 hPa | 0 mm | - | 0 W/m² | - |
| 1777978161 | 11.11° C | 59% | 1009.9 hPa | 0 mm | - | 0 W/m² | - |
| 1777977858 | 11.11° C | 61% | 1009.8 hPa | 0 mm | - | 0 W/m² | - |
| 1777977554 | 11.11° C | 60% | 1009.7 hPa | 0 mm | - | 0 W/m² | - |
| 1777977252 | 11.11° C | 61% | 1009.7 hPa | 0 mm | - | 0 W/m² | - |
| 1777976949 | 11.11° C | 60% | 1009.7 hPa | 0 mm | - | 0 W/m² | - |
| 1777976646 | 11.11° C | 60% | 1009.5 hPa | 0 mm | - | 0 W/m² | - |
| 1777976342 | 11.11° C | 59% | 1009.5 hPa | 0 mm | - | 0 W/m² | - |
| 1777976037 | 11.11° C | 60% | 1009.5 hPa | 0 mm | - | 0 W/m² | - |
| 1777975733 | 11.11° C | 61% | 1009.6 hPa | 0 mm | - | 0 W/m² | - |
| 1777975430 | 11.11° C | 60% | 1009.6 hPa | 0 mm | - | 0 W/m² | - |
| 1777975126 | 11.11° C | 60% | 1009.3 hPa | 0 mm | - | 0 W/m² | - |
* Rain latest hour (hover to see other rain measurements)
** Current wind speed in m/s (hover to see current wind gust speed)